Flag Weather past 2 weeks in Cali, Colombia

Now
82 °F

Passing clouds.


Feels Like: 84 °F
Forecast: N/A
Wind: 9 mph from North

Location: Cali / Alfonso Bonillaaragon

Current Time: Nov 28, 2014 at 6:36:12 PM

Latest Report: Nov 28, 2014 at 6:00 PM


Visibility: N/A

Pressure: 29.80 "Hg

Humidity: 55%

Dew point: 64 °F

Location of CaliLocation

Historic Weather in Cali — Graph

°F

Cali temperature yesterday

Maximum temperature yesterday: 86 °F (at 3:00 PM)
Minimum temperature yesterday: 68 °F (at 12:00 AM)
Average temperature yesterday: 75 °F

Past Weeks' High & Low Weather Summary

 TemperatureHumidityPressure
High90 °F (Nov 23, 3:00 PM)100% (Nov 18, 11:00 AM)30.12 "Hg (Nov 18, 11:00 AM)
Low36 °F (Nov 18, 11:00 AM)43% (Nov 22, 4:00 PM)29.78 "Hg (Nov 28, 4:00 PM)
Average74 °F75%29.97 "Hg
* Reported Nov 13 5:00 PM — Nov 28 5:00 PM, Cali, Weather by CustomWeather, © 2014

Note: Actual official high and low records may vary slightly from our data, if they occured in-between our weather recording intervals... More about our weather records

Advertising

Cali weather history for previous 24 hours

 ConditionsComfort  
Time TempWeatherWind HumidityBarometerVisibility
5:00 PM
Nov 28
86 °FPassing clouds.9 mph49%29.78 "HgN/A
4:00 PM90 °FScattered clouds.12 mph46%29.78 "HgN/A
3:00 PM90 °FScattered clouds.8 mph43%29.79 "HgN/A
2:00 PM88 °FScattered clouds.2 mph43%29.82 "Hg6 mi
1:00 PM88 °FScattered clouds.3 mph46%29.86 "Hg6 mi
12:00 PM86 °FScattered clouds.5 mph49%29.90 "Hg6 mi
11:00 AM84 °FScattered clouds.3 mph51%29.93 "Hg5 mi
10:00 AM79 °FScattered clouds.3 mph65%29.96 "Hg4 mi
9:00 AM77 °FPassing clouds.3 mph65%29.98 "Hg4 mi
8:00 AM72 °FScattered clouds.3 mph78%29.97 "Hg4 mi
7:00 AM68 °FPartly sunny.3 mph88%29.95 "Hg4 mi
6:00 AM68 °FScattered clouds.No wind94%29.92 "Hg5 mi
5:00 AM68 °FPassing clouds.No wind94%29.91 "HgN/A
4:00 AM68 °FPassing clouds.No wind88%29.90 "HgN/A
3:00 AM70 °FPassing clouds.No wind88%29.89 "HgN/A
2:00 AM70 °FPassing clouds.No wind88%29.90 "HgN/A
1:00 AM72 °FPassing clouds.No wind83%29.91 "HgN/A
12:00 AM72 °FPassing clouds.No wind83%29.92 "HgN/A
11:00 PM
Nov 27
73 °FPassing clouds.3 mph78%29.93 "HgN/A
10:00 PM75 °FPassing clouds.3 mph74%29.92 "HgN/A
9:00 PM73 °FPassing clouds.3 mph78%29.92 "HgN/A
8:00 PM75 °FPassing clouds.No wind69%29.90 "HgN/A
7:00 PM79 °FPassing clouds.No wind61%29.87 "HgN/A
6:00 PM79 °FPassing clouds.7 mph65%29.84 "HgN/A
Weather by CustomWeather, © 2014

See weather overviewHow to use our weather pages